Hourly Data Report for January 24, 2021

TORONTO CITY
ONTARIO
Current Station Operator: ECCC - MSC

43°40'00.000" N
79°24'00.000" W
112.50 m
6158355
71508
XTO

Download Data

Hourly Data (January 2021)
Hourly Data Report for January 24, 2021
TIME
LST
Temp Definition
°C
Dew Point Definition
°C
Rel Hum Definition
%
Precip. Amount Definition
mm

Wind Dir Definition
10's deg

Wind Spd Definition
km/h
Visibility Definition
km
Stn Press Definition
kPa
Hmdx Definition


Wind Chill Definition


Weather Definition


00:00 -5.7 -12.7 58 0.0       101.36     LegendNANA
01:00 -5.7 -12.4 59 0.0       101.33     LegendNANA
02:00 -5.3 -11.5 62 0.0       101.34     LegendNANA
03:00 -5.2 -11.2 63 0.0       101.35     LegendNANA
04:00 -5.5 -11.4 63 0.0       101.29     LegendNANA
05:00 -5.6 -10.9 66 0.0       101.31     LegendNANA
06:00 -6.1 -10.8 69 0.0       101.29     LegendNANA
07:00 -5.7 -10.5 69 0.0       101.29     LegendNANA
08:00 -5.4 -10.5 67 0.0       101.27     LegendNANA
09:00 -4.4 -9.8 66 0.0       101.24     LegendNANA
10:00 -3.8 -9.8 63 0.0       101.24     LegendNANA
11:00 -3.3 -8.3 68 0.0       101.22     LegendNANA
12:00 -3.2 -9.4 62 0.0       101.09     LegendNANA
13:00 -2.5 -10.7 53 0.0       101.00     LegendNANA
14:00 -2.2 -11.3 50 0.0       100.93     LegendNANA
15:00 -2.5 -10.9 53 0.0       100.88     LegendNANA
16:00 -2.2 -10.0 55 0.0       100.86     LegendNANA
17:00 -2.5 -10.0 56 0.0       100.83     LegendNANA
18:00 -2.6 -9.8 58 0.0       100.80     LegendNANA
19:00 -2.4 -9.4 59 0.0       100.78     LegendNANA
20:00 -2.4 -9.4 58 0.0       100.74     LegendNANA
21:00 -2.2 -8.6 61 0.0       100.69     LegendNANA
22:00 -2.1 -8.1 64 0.0       100.65     LegendNANA
23:00 -1.9 -7.2 67 0.0       100.67     LegendNANA

Notes on Data Quality.

Legend

  • E = Estimated
  • M = Missing
  • NA = Not Available*
  • [empty] = Indicates an unobserved value
Date modified: